Wetbulb
53.27 53.12 53.46 53.57 53.75 54.01 53.94 54.12 54.04 54.27 54.65 54.82 54.85 54.70 54.36 54.38 54.61 49.94 44.63 48.79 53.18 59.35 59.44 52.27 55.71 57.31 59.49 58.36 58.95 56.18 47.32 44.49 45.59 46.17 47.67 53.48 53.13 56.76 57.31 55.78 57.42 59.28 59.91 60.94 63.26
53.10 52.98 53.15 53.21 53.26 53.29 53.33 53.55 53.80 54.14 54.14 54.44 54.55 53.99 53.99 54.15 49.26 45.35 51.24 56.64 60.13 62.13 54.29 48.28 48.49 55.74 53.33 55.11 56.85 53.92 48.74 47.69 49.87 50.58 50.41 52.32 54.29 55.22 55.03 55.60 56.52 57.39 60.72 62.18 62.40
52.82 53.14 53.27 53.37 53.39 53.21 53.01 52.97 53.49 54.19 54.44 54.50 54.05 53.75 53.32 52.76 42.03 43.04 58.67 56.72 57.85 58.38 55.81 52.39 53.48 51.48 50.89 52.05 54.26 54.22 49.48 52.22 51.62 52.05 53.19 52.41 53.29 56.20 54.40 53.55 56.83 56.57 59.22 61.73 61.53
52.99 53.06 53.12 53.11 53.11 53.19 53.05 53.25 53.57 53.97 54.11 54.13 53.62 53.57 53.36 48.54 35.05 49.23 56.90 55.62 55.39 54.31 54.16 52.64 47.80 48.34 47.43 47.82 52.20 49.21 53.42 54.30 54.53 54.27 53.39 52.18 54.63 53.95 55.32 55.85 58.72 59.80 60.94 61.01 60.85
52.75 52.92 52.83 52.93 52.87 52.87 52.88 52.94 53.57 53.80 53.95 54.11 53.80 53.77 49.09 41.98 41.03 48.94 55.12 53.30 51.94 50.31 46.92 50.95 47.08 45.32 45.99 48.72 50.20 49.46 50.95 53.78 55.38 55.62 54.80 55.65 54.40 54.71 55.88 58.82 60.51 61.09 60.50 60.02 60.46
52.39 52.56 52.62 52.58 52.60 52.72 53.20 53.75 53.75 53.99 53.97 54.44 53.98 52.98 45.78 38.21 47.79 50.59 50.87 51.30 49.65 48.66 47.71 46.58 49.85 48.77 46.01 47.04 48.21 51.84 52.06 51.66 53.32 55.17 55.94 54.39 55.11 56.36 57.00 59.33 58.53 58.75 58.70 59.53 59.37
51.97 52.13 52.22 52.18 52.41 52.70 53.52 53.95 53.93 54.05 54.80 54.53 54.34 50.88 44.78 43.19 50.83 52.28 51.71 50.56 49.90 49.03 46.34 48.29 47.14 47.97 47.76 44.64 49.06 49.87 46.84 49.20 52.14 53.00 52.60 53.94 51.07 52.15 56.20 57.23 56.37 56.98 57.92 58.59 59.51
52.30 51.96 51.80 52.13 52.32 52.78 53.36 53.97 53.91 54.61 55.95 55.02 54.31 49.46 42.54 50.95 52.98 51.24 52.03 50.47 50.91 50.57 48.35 49.41 47.61 44.75 47.27 48.67 46.76 44.95 45.67 42.24 48.86 48.70 51.07 51.48 46.49 53.52 56.50 55.49 55.06 56.19 57.43 57.63 59.24
51.63 52.17 51.40 51.46 52.01 52.65 53.00 53.14 54.34 55.16 55.14 55.22 50.10 47.09 41.19 52.49 47.78 51.59 52.15 48.32 49.35 49.18 48.46 48.63 46.14 42.30 46.16 42.48 40.98 43.40 39.98 41.37 44.06 49.31 48.45 48.05 47.04 52.50 55.17 54.38 54.68 56.11 56.91 57.31 57.96
51.40 51.57 50.79 51.01 52.05 52.26 52.41 53.07 54.34 55.53 53.86 52.48 50.65 43.27 45.49 43.79 47.75 49.51 51.65 50.22 46.65 46.77 45.43 44.31 43.25 40.66 41.70 40.69 34.41 37.98 38.85 41.78 42.39 46.94 47.41 46.27 47.10 51.48 53.43 53.47 53.95 55.18 55.94 56.44 56.94
51.13 51.17 50.50 50.63 51.26 51.98 50.88 48.98 46.04 44.32 45.24 41.68 41.64 41.90 43.22 47.06 49.59 47.86 50.39 47.44 46.23 43.60 39.45 41.94 37.01 34.70 38.79 41.75 42.39 42.34 41.22 40.73 43.92 47.34 46.09 45.83 47.63 49.49 51.66 52.12 52.44 53.68 54.89 56.00 57.48
50.70 50.47 50.48 50.54 51.05 51.34 48.76 45.24 44.81 45.78 39.22 44.26 43.68 43.21 45.58 46.69 41.61 46.35 48.83 42.59 40.73 36.98 39.73 37.85 34.01 38.86 41.04 41.17 40.81 40.73 39.32 40.08 43.53 45.26 45.68 46.08 46.01 49.53 49.66 50.71 52.52 53.25 54.08 55.09 56.60
50.53 49.90 50.31 50.44 50.97 48.08 46.78 46.55 48.78 46.81 38.82 40.34 43.36 42.58 44.77 46.06 42.58 43.23 45.97 43.80 40.01 37.26 37.34 35.52 37.71 40.23 38.95 38.71 38.23 38.86 38.48 39.02 39.76 42.79 44.97 43.34 42.58 45.24 48.77 50.32 51.26 52.16 52.89 53.31 54.19
50.54 49.81 50.15 49.94 46.63 46.28 45.95 48.95 49.13 47.64 34.14 35.34 40.03 43.41 45.05 45.32 40.22 47.78 48.28 44.49 40.33 36.39 37.37 37.19 40.55 37.56 37.50 36.89 39.32 35.75 41.56 40.90 39.84 39.17 36.58 43.58 35.83 44.30 47.23 47.85 49.15 50.55 51.48 52.57 53.23
50.83 50.19 50.38 49.30 46.00 44.97 47.21 48.95 47.55 44.66 23.22 37.91 40.05 47.79 45.72 41.18 42.32 43.25 48.78 44.76 38.58 37.52 36.36 35.26 36.24 35.61 35.73 37.00 40.03 37.29 41.81 41.15 40.94 39.23 38.74 39.24 35.69 41.07 45.72 44.28 46.65 49.90 50.74 51.82 53.27
50.72 50.42 49.77 47.36 46.64 47.60 48.93 47.43 45.28 32.53 22.44 34.07 39.93 38.72 39.23 41.05 41.19 43.38 43.53 46.55 45.20 39.11 39.08 36.93 41.08 38.43 38.24 40.72 40.59 42.30 39.14 38.68 39.05 38.00 31.31 37.43 36.27 38.22 41.91 44.29 46.08 48.72 49.97 50.89 51.80
50.03 50.11 48.44 47.46 45.67 48.05 47.41 44.35 32.39 26.34 36.34 32.87 33.99 37.80 37.16 36.46 37.89 39.09 38.76 37.67 35.60 31.66 30.71 35.69 36.07 39.15 39.58 36.10 38.86 38.70 36.83 29.48 28.19 28.78 28.97 38.47 35.80 38.89 44.95 45.68 46.15 47.10 48.92 50.74 52.69
49.57 47.38 49.11 49.08 50.13 48.77 44.61 37.34 26.06 31.28 32.09 37.67 36.35 36.81 33.66 36.80 36.61 36.93 36.39 34.83 38.13 35.00 33.29 28.96 28.09 36.05 39.57 37.20 35.61 36.25 36.36 31.10 24.12 27.00 30.45 37.00 32.68 38.90 45.93 47.88 48.69 48.87 50.25 51.34 52.66
47.45 47.50 47.99 49.53 49.58 46.70 41.65 31.72 30.21 32.27 35.37 34.13 35.56 31.95 32.12 35.11 35.13 35.00 34.69 34.96 37.05 38.00 31.06 29.92 30.06 39.56 40.00 39.96 39.55 34.97 32.41 38.22 31.63 33.26 31.65 34.46 38.22 42.85 45.16 45.80 47.33 47.65 50.15 51.77 53.38
44.75 45.14 47.21 48.76 48.58 45.99 38.36 31.74 33.43 37.61 37.81 36.69 30.26 33.49 29.47 32.30 32.14 32.98 32.87 37.52 35.91 39.58 40.14 35.56 28.85 36.17 37.85 41.52 40.17 38.15 39.91 31.68 33.09 25.76 25.45 32.19 34.20 37.28 42.62 44.04 46.47 46.86 48.61 50.99 55.54
44.38 44.17 47.85 48.01 48.24 42.19 34.05 33.28 35.47 39.95 39.47 35.60 33.76 32.95 33.02 31.73 32.86 32.11 32.60 37.09 39.31 38.27 40.08 38.12 33.84 33.01 37.25 34.43 34.12 36.20 34.65 35.79 35.81 34.34 29.60 29.98 34.43 43.57 44.24 45.59 45.40 46.81 48.58 50.26 54.07
42.49 40.42 47.74 47.33 40.03 35.70 34.95 35.24 38.34 38.30 40.34 38.32 38.48 36.59 34.19 33.95 32.32 32.19 32.02 35.50 40.71 39.92 34.64 38.40 35.45 29.94 31.87 38.93 39.43 38.26 35.17 35.66 31.40 30.06 33.20 32.76 33.49 45.51 45.10 45.56 46.69 47.22 48.71 50.40 53.72
38.95 39.49 47.57 44.99 34.14 34.24 35.75 35.49 37.15 36.98 37.25 36.99 35.94 37.19 37.37 33.75 30.32 33.46 34.48 39.37 40.28 38.88 36.37 38.42 33.28 27.44 29.69 35.83 38.36 35.11 36.41 36.65 36.16 36.27 32.17 29.98 33.38 44.65 45.10 46.27 47.62 47.40 48.87 49.84 52.35
40.31 36.02 39.12 39.96 38.37 34.09 32.71 33.47 33.65 39.53 38.13 38.78 37.09 38.27 35.67 33.42 35.95 32.70 33.54 37.58 39.99 39.51 42.50 41.33 34.39 30.76 26.03 29.79 34.56 32.28 34.45 36.38 35.22 31.16 32.76 33.55 36.12 40.77 43.28 44.17 46.14 47.51 49.21 50.11 51.21
37.58 34.64 36.97 32.63 34.17 33.66 34.45 33.48 32.80 33.96 38.63 39.05 36.38 35.96 34.78 32.75 32.56 32.62 34.71 36.09 38.62 40.27 39.69 38.83 31.25 33.52 33.02 34.73 34.90 34.11 33.96 35.15 33.68 34.95 31.14 34.89 35.99 40.10 43.17 44.32 46.03 47.84 48.68 49.31 49.83
38.44 36.18 38.84 35.32 34.84 34.46 34.16 33.32 33.63 35.32 34.58 34.34 34.35 35.51 36.18 32.73 33.82 31.36 33.76 33.85 34.60 37.77 36.96 39.32 31.63 33.24 30.78 33.82 33.89 31.76 34.17 34.71 35.00 35.58 35.76 36.08 35.77 42.92 44.51 45.70 45.64 46.72 47.91 48.98 50.76
41.31 40.73 37.15 35.61 33.76 32.63 33.58 33.78 33.85 34.84 37.15 38.46 37.09 35.96 34.71 36.54 38.68 39.54 39.84 39.40 37.75 35.66 35.68 35.19 33.86 31.34 26.35 31.58 31.85 28.20 33.71 35.20 36.08 38.25 37.73 33.87 39.08 43.34 42.54 44.01 45.74 47.12 48.82 49.58 50.95
MSLP
1021.73 1021.34 1020.94 1020.57 1020.16 1019.81 1019.40 1019.06 1018.79 1018.50 1018.21 1017.91 1017.63 1017.31 1016.80 1016.17 1015.35 1015.07 1014.40 1013.31 1013.08 1012.76 1012.97 1012.28 1011.77 1011.49 1011.26 1010.96 1010.88 1010.82 1009.73 1008.07 1007.61 1007.56 1006.85 1006.26 1005.58 1005.36 1005.35 1004.92 1004.51 1003.94 1003.90 1004.37 1004.29
1021.71 1021.24 1020.74 1020.32 1019.95 1019.61 1019.32 1019.00 1018.65 1018.28 1017.92 1017.64 1017.38 1016.99 1016.57 1016.18 1015.56 1014.59 1013.64 1013.29 1012.92 1012.41 1012.41 1011.96 1011.44 1011.11 1011.03 1010.57 1010.26 1009.84 1008.54 1007.15 1007.23 1007.14 1006.69 1006.18 1006.01 1005.55 1005.25 1004.91 1004.28 1004.07 1003.93 1004.16 1004.19
1021.49 1021.08 1020.68 1020.25 1019.79 1019.34 1018.94 1018.64 1018.34 1017.98 1017.67 1017.44 1017.19 1016.84 1016.43 1015.97 1015.03 1013.15 1012.94 1012.95 1012.74 1012.30 1012.30 1011.98 1011.62 1010.77 1010.42 1009.95 1009.47 1008.83 1007.21 1006.81 1006.88 1006.72 1006.57 1005.89 1005.66 1005.84 1005.24 1004.48 1004.07 1003.92 1003.91 1003.83 1004.20
1021.41 1021.01 1020.64 1020.26 1019.84 1019.36 1018.96 1018.61 1018.28 1017.96 1017.56 1017.27 1017.04 1016.69 1016.28 1015.81 1014.53 1013.15 1013.03 1013.07 1012.82 1012.21 1012.14 1011.99 1011.60 1010.60 1009.85 1008.85 1008.71 1008.12 1007.20 1006.83 1006.60 1006.54 1006.34 1005.52 1005.54 1005.16 1005.14 1004.03 1004.23 1004.09 1004.38 1004.30 1004.39
1021.33 1020.89 1020.44 1019.96 1019.42 1018.89 1018.51 1018.23 1018.02 1017.68 1017.34 1017.11 1016.94 1016.64 1016.24 1015.35 1013.79 1013.08 1012.95 1012.88 1012.70 1012.49 1012.19 1011.86 1011.15 1010.48 1008.96 1008.39 1008.62 1007.49 1006.66 1006.74 1006.65 1006.75 1006.09 1005.79 1005.25 1005.30 1004.40 1003.81 1004.25 1004.31 1004.28 1003.99 1003.97
1021.28 1020.85 1020.36 1019.87 1019.31 1018.67 1018.09 1017.51 1017.18 1017.07 1016.84 1016.71 1016.68 1016.65 1016.45 1014.89 1013.17 1013.18 1013.08 1012.77 1012.61 1012.50 1012.30 1011.98 1011.07 1010.44 1009.45 1008.30 1007.79 1006.26 1006.76 1006.49 1006.61 1006.34 1006.18 1005.82 1004.66 1004.88 1003.79 1003.94 1003.70 1003.76 1003.60 1003.35 1003.28
1021.09 1020.65 1020.16 1019.62 1019.02 1018.29 1017.68 1017.08 1016.80 1016.49 1016.28 1016.07 1016.28 1016.35 1015.99 1013.98 1012.92 1012.71 1012.79 1012.73 1012.50 1012.22 1011.99 1011.88 1011.42 1010.94 1009.49 1008.55 1007.67 1006.92 1006.69 1006.43 1006.04 1005.84 1005.66 1005.75 1003.92 1002.70 1003.61 1003.54 1003.20 1003.04 1002.81 1002.65 1002.69
1020.82 1020.35 1019.88 1019.29 1018.60 1017.89 1017.25 1016.46 1016.17 1015.79 1015.72 1015.80 1016.07 1016.25 1014.67 1013.08 1012.99 1012.75 1012.31 1012.13 1012.17 1012.08 1011.94 1011.51 1011.56 1010.99 1009.63 1008.46 1007.42 1006.96 1006.92 1005.78 1004.75 1005.57 1005.16 1005.65 1001.99 1000.99 1002.17 1002.43 1002.30 1001.75 1001.95 1002.14 1002.17
1020.83 1020.36 1019.82 1019.28 1018.57 1017.81 1017.12 1016.25 1015.79 1015.68 1015.75 1015.88 1016.13 1015.87 1013.71 1012.63 1012.55 1011.70 1012.00 1011.77 1011.44 1011.35 1011.24 1011.07 1011.41 1010.55 1009.46 1008.78 1007.63 1006.54 1004.83 1004.47 1004.60 1004.23 1004.59 1004.52 1000.92 1001.51 1001.50 1001.70 1001.50 1001.73 1001.79 1001.51 1001.35
1020.72 1020.22 1019.67 1019.13 1018.46 1017.66 1016.78 1015.69 1015.41 1015.60 1015.89 1015.89 1015.74 1015.68 1013.60 1012.58 1011.97 1011.45 1011.05 1011.29 1011.25 1011.01 1010.39 1010.45 1010.67 1009.58 1008.81 1007.72 1005.09 1004.06 1004.63 1003.22 1002.85 1003.44 1004.02 1003.42 1000.84 1001.60 1001.51 1001.37 1000.82 1000.56 1000.70 1000.72 1000.88
1020.66 1020.02 1019.47 1018.92 1018.30 1017.54 1016.50 1015.41 1015.78 1015.71 1015.49 1015.20 1014.96 1014.55 1013.32 1012.59 1012.10 1010.87 1010.57 1010.76 1010.83 1010.81 1009.67 1009.69 1009.61 1007.85 1006.89 1006.96 1006.36 1004.79 1004.52 1003.78 1003.43 1003.49 1003.52 1002.68 1001.20 1001.57 1001.78 1001.40 1000.94 1000.56 1000.52 1000.50 1000.44
1020.48 1019.86 1019.26 1018.71 1018.16 1017.58 1017.08 1016.60 1017.03 1017.36 1016.02 1014.64 1014.29 1014.13 1013.06 1012.85 1011.89 1010.37 1010.37 1010.63 1010.63 1010.15 1009.82 1009.42 1008.15 1007.86 1008.06 1007.35 1006.65 1005.80 1004.95 1003.95 1003.92 1003.86 1003.64 1002.49 1001.35 1001.46 1001.58 1001.03 1000.52 1000.22 1000.17 1000.21 1000.23
1020.13 1019.63 1018.94 1018.52 1018.06 1017.69 1017.31 1016.99 1017.16 1017.28 1016.78 1014.36 1013.49 1013.02 1012.11 1012.21 1011.09 1010.17 1010.35 1010.24 1010.09 1009.65 1009.17 1008.32 1007.44 1007.52 1007.31 1006.99 1006.24 1005.55 1005.05 1004.86 1004.29 1004.27 1003.87 1003.35 1001.55 1001.26 1000.87 1000.64 1000.28 999.99 999.97 999.93 1000.03
1019.81 1019.17 1018.64 1018.13 1018.07 1017.93 1017.23 1017.06 1017.12 1017.09 1016.03 1014.08 1012.82 1012.02 1011.68 1011.21 1010.65 1009.89 1010.36 1010.47 1009.66 1008.99 1008.80 1007.98 1007.18 1007.07 1006.43 1005.98 1006.05 1005.06 1005.29 1005.25 1005.07 1004.67 1003.56 1003.64 1000.76 1000.10 1000.07 999.70 999.57 999.34 999.23 999.14 999.35
1019.28 1018.61 1018.10 1018.03 1017.99 1017.67 1017.06 1017.10 1017.02 1016.99 1015.43 1013.66 1012.38 1011.81 1011.53 1011.40 1010.69 1009.99 1010.15 1010.23 1009.69 1009.05 1008.88 1007.03 1006.80 1006.22 1005.68 1005.50 1005.64 1005.23 1005.31 1004.98 1005.02 1004.73 1004.48 1003.55 1002.78 999.20 999.77 998.90 998.72 998.48 998.42 998.53 998.51
1018.77 1017.99 1017.56 1018.05 1018.16 1017.42 1017.16 1016.99 1016.82 1016.43 1014.64 1013.39 1012.76 1012.21 1011.74 1011.30 1010.60 1010.12 1009.96 1009.90 1009.32 1008.97 1008.62 1007.80 1007.49 1006.45 1005.25 1005.03 1005.12 1005.40 1005.43 1005.41 1005.25 1004.89 1003.95 1003.24 1003.14 998.62 998.66 998.13 998.08 998.22 998.10 998.28 998.19
1018.34 1017.62 1017.34 1017.52 1017.46 1017.33 1017.19 1016.83 1016.65 1015.56 1014.81 1014.09 1013.44 1012.95 1012.47 1011.73 1010.98 1010.59 1010.01 1010.07 1010.38 1009.66 1008.24 1007.42 1006.91 1006.31 1005.91 1005.12 1005.15 1005.06 1004.88 1005.15 1005.09 1004.26 1002.77 1002.93 1002.56 999.07 997.88 997.90 998.11 998.07 998.21 998.28 997.51
1017.96 1017.48 1017.35 1017.20 1017.17 1017.25 1017.06 1016.80 1016.11 1015.54 1014.97 1014.51 1014.00 1013.34 1012.68 1012.27 1011.60 1011.18 1010.59 1010.40 1011.17 1010.62 1009.25 1008.05 1006.52 1006.28 1005.69 1005.10 1004.46 1004.54 1004.49 1003.56 1003.03 1002.70 1002.60 1003.03 1000.65 998.22 998.29 997.80 997.94 998.08 998.05 997.90 997.34
1017.66 1017.45 1017.16 1016.91 1016.84 1016.93 1016.69 1016.37 1015.99 1015.78 1015.48 1015.03 1014.27 1013.64 1013.18 1013.07 1013.00 1011.96 1011.14 1010.81 1011.00 1010.57 1010.28 1008.98 1007.41 1006.82 1005.75 1005.10 1004.71 1004.43 1004.28 1004.06 1003.50 1003.28 1002.21 1001.37 999.63 998.53 998.25 997.78 997.60 997.94 997.86 997.49 997.14
1018.28 1017.81 1017.09 1016.85 1016.70 1016.53 1016.56 1016.64 1016.35 1016.01 1015.69 1015.33 1014.79 1014.34 1013.72 1013.37 1013.24 1012.60 1011.46 1011.00 1010.77 1010.47 1010.41 1009.28 1008.25 1007.43 1006.40 1005.41 1004.72 1004.42 1004.02 1004.31 1003.84 1002.59 1001.51 1000.25 999.30 997.67 997.57 997.82 997.61 998.01 998.19 997.84 997.27
1018.31 1017.73 1016.95 1016.71 1016.54 1016.75 1017.16 1017.14 1016.65 1015.99 1015.88 1015.48 1014.92 1014.57 1014.26 1013.98 1013.69 1012.96 1011.94 1011.09 1010.85 1010.39 1010.16 1009.74 1008.79 1007.73 1006.90 1006.23 1005.23 1004.90 1004.37 1004.09 1003.64 1002.86 1001.20 999.81 998.24 997.90 997.63 998.15 998.60 998.70 998.67 997.92 997.27
1019.08 1018.03 1017.26 1016.72 1017.09 1018.09 1017.82 1017.68 1017.15 1016.13 1015.77 1015.52 1015.08 1014.84 1014.62 1014.48 1013.82 1013.23 1012.19 1011.58 1011.11 1010.82 1010.27 1010.11 1009.54 1008.07 1007.03 1006.22 1006.38 1005.89 1005.44 1004.99 1003.67 1003.05 1002.28 1001.14 999.22 998.50 998.49 998.69 998.93 998.81 998.26 997.74 997.44
1019.83 1019.03 1017.70 1017.29 1017.85 1018.29 1018.24 1017.74 1017.31 1016.51 1016.00 1015.68 1015.27 1015.03 1015.02 1014.81 1014.37 1013.24 1012.31 1011.51 1011.31 1010.87 1010.63 1010.61 1009.84 1008.54 1006.91 1006.87 1006.65 1006.20 1006.00 1005.56 1005.07 1004.43 1002.42 1001.38 999.02 998.81 998.69 998.43 998.75 998.68 998.19 997.56 997.44
1020.40 1019.67 1018.85 1018.71 1019.16 1018.97 1018.59 1017.79 1017.27 1016.36 1015.95 1015.96 1015.59 1015.13 1014.99 1014.60 1014.14 1013.06 1012.21 1011.69 1011.30 1011.17 1011.09 1010.83 1010.33 1009.61 1008.58 1007.93 1007.83 1006.99 1006.47 1006.12 1005.70 1004.34 1002.94 1001.11 1000.72 999.03 998.94 998.92 998.61 998.70 998.32 997.73 997.48
1021.25 1021.31 1021.17 1020.13 1019.53 1019.44 1019.06 1018.29 1017.36 1016.67 1016.39 1016.06 1015.45 1015.18 1014.94 1014.18 1013.38 1012.43 1011.94 1011.71 1011.50 1011.26 1011.19 1010.81 1009.87 1009.52 1009.26 1008.71 1008.06 1007.20 1006.55 1006.06 1005.39 1004.46 1003.74 1002.02 1001.42 1000.13 999.67 1000.13 999.72 998.93 998.29 997.61 997.01
1021.83 1021.89 1021.36 1020.85 1020.31 1019.61 1018.77 1017.98 1017.41 1017.10 1016.95 1015.79 1015.51 1015.06 1014.86 1014.19 1013.45 1012.17 1011.91 1011.92 1011.71 1011.18 1011.09 1010.59 1009.81 1009.68 1008.99 1008.23 1007.54 1006.80 1006.14 1005.58 1004.66 1004.39 1003.16 1002.64 1001.68 1001.94 999.99 1000.28 999.43 998.75 998.19 997.44 996.83
1022.00 1022.06 1022.03 1020.91 1020.31 1019.77 1018.80 1018.17 1017.58 1017.46 1016.22 1015.80 1015.38 1014.73 1013.88 1012.99 1012.37 1011.68 1011.48 1011.05 1011.50 1011.61 1011.25 1011.01 1010.24 1009.48 1008.44 1008.16 1007.37 1006.06 1004.69 1004.29 1004.02 1003.68 1002.90 1001.84 1001.61 1001.48 1000.03 998.65 998.98 998.48 998.19 997.71 997.16
Wind_Speed
16 16 17 18 18 18 19 19 18 17 17 16 16 16 18 20 22 6 6 4 6 10 12 10 7 7 4 6 6 3 9 13 17 11 7 3 7 2 4 6 5 1 5 6 5
16 16 17 18 18 18 18 18 18 18 18 17 16 15 17 19 11 9 8 5 9 11 4 7 7 10 6 7 8 11 11 20 7 14 7 11 3 5 5 7 6 4 7 11 3
16 16 17 17 18 19 19 20 20 20 18 17 15 15 16 15 5 3 8 13 12 9 6 4 4 11 14 7 13 10 19 19 15 16 14 18 18 9 10 14 12 5 9 14 11
17 17 17 17 17 17 17 18 18 18 18 17 15 13 14 4 4 5 10 12 15 15 4 4 8 8 11 19 15 15 20 21 14 12 10 20 19 14 15 22 9 15 12 13 14
18 18 19 19 20 20 19 17 16 16 15 13 10 9 4 3 7 4 11 11 11 7 4 5 10 10 16 13 18 24 22 13 19 12 17 13 19 16 18 21 15 18 18 17 16
18 19 19 19 20 20 20 20 18 16 13 10 5 3 1 5 1 3 7 14 3 3 5 5 6 10 11 17 21 14 20 23 15 14 20 20 25 18 14 15 15 15 20 20 17
19 20 20 20 20 22 21 19 16 15 11 2 8 5 3 10 3 11 11 5 3 2 4 8 11 9 4 15 18 23 17 9 21 23 16 8 27 31 21 19 23 18 19 20 17
20 21 22 22 23 23 23 23 20 18 8 6 10 3 8 4 6 12 6 7 8 8 5 8 7 10 13 8 12 15 20 21 23 13 11 16 32 26 14 16 21 22 19 15 14
21 19 22 22 22 22 23 25 18 8 4 11 6 3 9 10 6 8 7 9 11 5 7 3 3 8 7 14 11 18 19 29 27 21 13 19 34 23 17 17 19 17 17 15 13
21 20 22 21 21 21 24 17 2 10 7 5 4 4 5 8 8 12 13 13 8 9 5 3 5 10 14 17 23 25 28 27 24 17 20 19 34 18 12 12 14 16 16 15 15
22 21 22 21 21 21 12 3 4 1 1 6 6 5 15 7 14 7 10 4 3 7 10 6 9 20 24 24 23 16 20 21 19 13 16 25 31 26 19 21 22 20 20 19 19
23 23 22 21 20 20 4 5 4 3 10 6 13 12 17 8 7 10 2 3 3 12 6 6 17 18 16 17 23 22 14 14 8 6 11 19 25 22 13 17 20 21 22 20 19
23 23 23 20 21 2 2 4 6 7 4 8 5 5 8 4 8 9 1 4 9 15 17 17 14 9 17 19 19 24 22 10 5 3 9 9 20 21 18 19 20 20 20 19 20
23 23 20 18 2 3 2 5 3 6 3 3 2 1 4 10 5 5 3 5 7 13 15 14 14 15 12 21 18 19 17 18 14 7 9 5 14 17 16 18 17 18 19 20 17
24 24 17 5 3 3 3 5 2 3 6 8 2 5 14 5 11 1 5 4 12 16 7 12 10 16 19 12 16 13 10 15 17 16 12 18 10 16 15 20 23 22 20 20 21
26 23 8 3 3 4 5 3 3 3 4 3 6 11 15 11 14 6 5 8 12 10 16 15 9 5 7 17 12 18 11 5 5 7 13 17 12 16 19 20 19 19 18 16 16
27 19 2 3 3 4 4 1 2 4 5 5 8 12 15 8 12 12 12 7 4 6 9 12 17 9 8 5 5 9 19 9 11 11 16 9 13 18 7 4 7 3 6 12 14
26 6 3 2 3 4 0 1 3 1 3 7 7 16 4 9 11 13 9 6 6 7 2 7 10 7 11 14 12 13 13 10 15 11 13 11 14 8 13 15 12 8 6 9 12
15 2 1 3 0 2 1 1 2 1 3 7 13 4 3 5 7 10 9 6 2 4 6 5 3 15 3 1 12 8 10 6 3 1 7 11 16 16 17 17 16 4 8 13 16
3 3 3 7 3 1 1 2 3 3 5 4 4 2 6 9 9 11 6 3 5 9 6 4 5 6 13 8 7 6 8 10 6 7 8 9 16 9 7 6 2 2 12 16 18
2 1 3 7 0 4 2 3 5 7 4 3 4 7 7 10 7 8 6 9 6 12 12 7 4 3 5 3 3 5 6 7 7 9 5 3 4 3 7 10 9 9 12 15 18
4 1 5 4 2 1 2 6 6 6 1 6 6 9 7 7 9 7 5 7 9 11 10 6 5 5 5 5 3 7 3 5 9 19 11 7 6 5 11 9 10 13 17 19 17
4 4 2 3 2 2 4 5 4 5 6 4 5 4 5 7 6 5 9 4 9 5 4 8 2 6 2 6 4 1 2 6 6 5 15 15 8 9 4 10 14 18 20 20 17
3 4 3 4 2 2 5 4 5 8 9 3 9 8 3 8 10 10 15 10 7 12 17 10 5 9 8 7 7 8 8 7 6 9 14 21 20 25 21 22 22 21 20 20 17
4 3 3 5 2 7 4 4 9 6 4 6 4 7 8 7 15 16 6 8 11 14 14 5 8 10 12 14 14 16 17 16 16 17 15 16 20 23 21 18 20 22 20 21 20
2 3 2 5 8 7 4 3 8 4 5 8 8 13 14 13 17 23 21 14 8 6 8 5 5 3 10 15 17 18 19 19 22 19 24 24 25 20 27 24 25 23 21 20 18
0 1 0 3 4 4 2 5 10 15 10 12 13 15 15 18 15 21 21 21 15 4 4 4 5 4 6 4 9 12 18 22 19 17 18 22 19 18 25 25 21 21 18 19 18
Wind_Direction
0 355 351 349 347 345 342 340 337 335 333 332 333 335 332 327 323 324 263 302 298 302 313 306 250 200 170 202 201 174 229 236 229 212 228 243 229 149 289 270 305 236 63 32 63
353 350 348 345 342 340 337 335 333 331 329 328 329 330 329 325 315 285 249 303 320 302 277 233 226 186 200 207 198 206 228 233 221 224 221 248 256 314 302 293 277 270 158 357 45
350 348 345 342 339 336 333 331 330 328 327 326 327 328 328 325 289 192 130 16 345 320 234 245 252 214 217 198 200 212 232 232 230 225 221 248 260 232 268 270 255 277 322 325 329
345 343 341 338 334 330 327 325 324 324 321 321 324 323 322 308 359 76 358 9 1 5 199 207 212 197 222 216 206 239 230 238 244 235 229 239 254 253 247 252 257 297 298 294 284
342 342 341 339 335 331 327 322 320 321 318 313 311 310 335 328 259 317 342 344 337 344 342 295 230 224 224 220 226 232 237 241 238 249 241 259 251 254 247 262 263 276 278 272 275
340 340 338 336 331 327 325 320 322 321 319 298 264 242 53 305 253 276 335 318 342 15 330 269 251 244 263 239 224 233 234 243 241 232 245 256 260 250 253 249 256 263 268 269 269
340 339 337 334 331 326 323 315 316 314 326 318 178 189 228 248 283 305 311 269 236 196 314 263 251 250 305 253 246 244 249 237 232 230 241 239 271 241 242 252 259 258 266 269 263
340 338 337 335 332 328 324 315 317 308 334 153 169 170 258 248 300 290 280 280 241 226 212 253 251 276 232 289 245 226 234 242 227 204 225 200 257 263 230 238 254 265 262 259 261
339 336 334 333 328 324 319 308 300 280 141 149 145 206 282 312 282 296 216 269 284 244 203 158 193 225 215 229 234 228 229 225 236 211 201 196 251 251 261 248 250 243 250 260 270
337 334 334 332 327 325 318 307 146 133 144 172 130 262 252 314 310 300 287 251 264 277 154 125 209 224 220 203 215 215 225 233 223 212 211 217 249 244 261 266 263 273 280 280 274
334 331 332 332 330 331 334 6 9 240 37 268 295 273 285 283 294 262 297 250 238 261 251 190 220 224 225 228 245 263 248 242 248 228 212 223 242 245 239 254 258 261 267 269 272
335 333 331 331 328 325 311 77 106 327 305 277 258 251 267 270 285 311 203 277 266 270 217 213 233 247 255 254 237 241 252 249 230 226 229 238 248 249 244 251 254 259 263 269 275
331 333 328 327 322 328 341 139 129 160 257 296 236 257 289 223 294 312 268 293 279 273 249 242 257 244 233 245 232 229 233 215 223 238 250 275 260 251 245 249 254 254 260 264 262
328 329 325 325 221 344 229 140 313 196 278 282 267 159 318 307 254 326 343 285 253 265 258 246 241 236 254 225 236 234 223 228 239 260 232 201 269 244 242 252 249 256 256 259 264
329 330 323 283 314 223 83 338 140 208 299 344 348 336 329 324 305 155 40 347 280 263 246 229 246 224 219 235 214 248 204 206 213 229 251 240 268 260 251 257 256 257 265 271 265
333 334 335 118 195 260 327 329 191 226 268 350 335 339 348 327 331 313 287 2 275 272 251 269 265 291 255 216 211 212 228 252 234 225 233 233 238 268 253 257 259 260 264 270 278
336 334 163 158 20 358 329 169 236 229 356 344 329 336 329 313 323 333 325 355 6 299 256 233 229 245 257 241 166 181 186 194 217 214 237 201 217 243 246 288 236 258 310 293 296
335 335 166 231 289 324 255 201 242 58 296 336 326 321 311 353 329 325 317 344 67 324 6 292 219 226 206 231 209 199 203 207 218 207 226 202 227 241 237 267 277 285 300 300 316
336 325 115 349 346 164 274 69 311 276 310 318 318 302 305 329 325 326 310 311 128 349 338 338 324 324 115 228 205 164 204 227 277 68 219 193 249 280 262 274 270 259 10 352 339
358 317 28 332 333 26 59 307 273 258 309 305 286 282 307 331 319 333 304 352 357 11 337 329 291 145 306 315 184 233 183 193 205 201 211 210 244 236 117 80 332 124 11 353 348
25 259 358 337 181 46 65 285 289 285 280 279 280 284 282 316 308 311 291 317 358 350 347 327 290 170 250 196 340 192 215 224 249 237 248 242 201 231 237 99 57 31 4 354 352
347 267 1 325 50 42 340 317 307 287 298 291 265 275 282 316 300 292 267 303 341 330 327 347 307 284 263 293 298 286 292 283 234 217 237 285 279 108 112 80 23 356 351 354 353
351 295 339 308 55 356 327 291 272 293 318 317 288 276 287 295 296 261 284 287 340 308 352 358 351 308 287 152 99 213 203 247 255 283 246 236 220 182 250 305 339 341 340 344 345
341 332 353 38 33 18 337 322 312 265 276 270 283 279 279 279 271 274 280 295 278 293 309 301 247 255 274 330 330 294 290 279 270 254 251 243 259 268 285 303 319 324 332 330 329
12 41 20 324 357 325 283 285 286 301 329 328 270 238 313 283 298 276 285 312 289 292 292 255 246 234 259 271 276 272 273 271 253 253 254 265 258 271 283 302 305 309 314 316 317
23 349 337 290 294 296 288 262 290 333 294 290 249 295 293 289 287 291 292 282 262 220 242 244 270 241 257 265 264 267 261 256 254 255 255 259 261 268 283 283 283 288 302 308 309
54 82 144 287 291 309 299 325 310 322 284 257 295 298 293 289 285 284 282 274 250 229 248 248 234 221 262 314 311 267 248 244 253 260 262 261 267 258 263 268 270 283 290 294 298